Погода в Новом Бору

Россия / Республика Коми     66°43′18″N   52°18′23″E
темп.,
°C
ветер,
м/с
пор.,
м/с
влажн.,
%
обл.,
%
осадки,
мм/ч
давл.,
гПа
погр.,
м
24 мая, вт
вт2400:00+1всв46100100 0.2 1005350
03:00+1в23100100 0.3 100785
06:00+2вюв22100100 0.0 100994
09:00+3юв239896 0.0 1010276
12:00+5юв2384100 0.0 1012616
15:00+6ююв127464 0.0 1013780
18:00+7з11744 0.0 1014147
21:00+3ссз33865 0.0 101624
25 мая, ср
ср2500:00+2всв33905 0.0 101630
03:00+2св45905 0.0 101768
06:00+7в4780100 0.0 1017335
09:00+9вюв5973100 0.0 1017644
12:00+12юв7964100 0.1 10171326
15:00+13в475597 0.1 10161450
18:00+11всв81167100 0.1 1015384
21:00+9св71276100 0.1 1014214
26 мая, чт
чт2600:00+9всв71379100 0.1 1012307
03:00+8св71289100 0.7 1009328
06:00+10всв71384100 1.9 1006402
09:00+11в71485100 2.3 1004405
12:00+18юв91363100 0.3 10031438
15:00+15ююв4886100 1.3 1001388
18:00+11юв51293100 9.1 1002599
21:00+10юв7129049 9.7 1003388
27 мая, пт
пт2700:00+8юв61193100 0.0 1004261
03:00+7ююв61290100 0.0 1004392
06:00+8ююв688392 0.0 1005692
09:00+9ю5573100 0.1 1005975
12:00+10ю4471100 0.1 1006951
15:00+11ююв4467100 0.2 1006895
18:00+11ююв2366100 0.1 1006808
21:00+9ю2280100 0.1 100632
28 мая, сб
сб2800:00+8ююз2283100 0.0 100526
03:00+7юз3484100 0.0 100562
06:00+10ю336820 0.0 1005353
09:00+13юв585110 0.0 10061580
12:00+12юв81164100 0.0 10061573
15:00+11юв61173100 0.2 1006477
18:00+12юв71379100 0.3 1005620
21:00+11юв8148580 0.6 1006487